ATLAS 5 CENTAUR DEB, 44643

Orbit data source: Space-Track

ATLAS 5 CENTAUR DEB, 44643 is space debris in HEO originally from a launch on Wed, 17 Oct 2018 UTC launched from the Air Force Eastern Test Range (AFETR). Debris objects in space refer to the collection of defunct objects orbiting the Earth. Examples of debris include non-operational satellites, rocket bodies, and fragments generated from explosions, collisions, or faulty payload assembly.

Loading next visibility...
ATLAS 5 CENTAUR DEB details
Identifier
44643, 2018-079D
Orbit
HEO
Last TLE update13 hours ago
Origin
Flag of USULA (US)
ManufacturerULA Decatur
MissionSpacecraft
Bus & MotorUnknown
MassUnknown
Launch date (UTC)
2018-10-17 (6 years ago)
Launch vehicleUnknown
Launch site
Air Force Eastern Test Range (AFETR)
Object type
Payload
Rocket body
Debris
Shape & HBRUnknown
Radar Cross SectionRCS unknown

Expand to show TLE details & history

TLE from 13 hours ago
0 ATLAS 5 CENTAUR DEB
1 44643U 18079D   24361.20239099 -.00000146  00000-0  00000+0 0  9997
2 44643  13.3443  70.0509 4784318 238.2555  66.2044  1.82010414 37459
Epoch: 2024-12-26T04:51Z
Definitive object data (Epoch: 2024-12-26T04:51:26.581Z)
Latitude0.00001°
Longitude-98.02901°
Altitude22,844.86 km
Speed3.635 km/s
True Right ascension04h 40m 04s
True Declination0° 00' 00"
Sunlit
Object was in daylight at TLE epoch
Visualization TLE readout
Latitude-0.83445°
Longitude-101.58884°
Altitude21,834.284 km
Speed3.767 km/s
Apparent Right ascension04h 33m 08s
Apparent Declination-7° 43' 50"
Sunlit
Object is in daylight
Visualization observer readout
Local Sidereal Time17:15:29
Azimuth19.235° NNE
Elevation-56.448°
Doppler factor1
Orbital elements
Apogee altitude35,517.772 km
Perigee altitude8,402.101 km
Semi-major axis28,338.073 km
Eccentricity0.4784318
Inclination13.3443°
RAAN70.0509°
Arg. of periapsis238.2555°
True anomaly121.66661°
Mean anomaly66.2044°
Eccentric anomaly93.56352°
Mean motion0.45498 °/min
BSTARUnknown
Orbital period791.25 mins
Loading maneuver chart data...

ATLAS 5 CENTAUR DEB Visibility forecast

Observer location: undefined°, undefined

Span
Click to sort rows by Start time (UTC) header in descending order
Start Az.
Max El. time (UTC)
Max El. Az.
Max El.
End time (UTC)
End Az.
695 mins2024-12-27 06:09:05.220Z232.165° WSW2024-12-27 10:03:05.220Z228.589° WSW34.259°2024-12-27 17:44:05.220Z144.764° SSE
|